• In Hungary
  • List of Countries
  • For 7 days
  • Water Temperature
  • Satellite Maps
  • Weather Map
  • News
  • Weather Widgets
  • user-avatar
    Login

    Hourly Weather Baturino

    Today, 18 February, Sunday

    Time Temperature Precipitation Wind Pressure Humidity
    00:00 -19°C° 0 mm 0 mps 702 mmHg 90%
    01:00 -19°C° 0 mm 0 mps 701 mmHg 91%
    02:00 -20°C° 0 mm 0 mps 701 mmHg 91%
    03:00 -20°C° 0 mm 0 mps 701 mmHg 91%
    04:00 -20°C° 0 mm 1 mps 702 mmHg 91%
    05:00 -20°C° 0 mm 1 mps 702 mmHg 91%
    06:00 -20°C° 0 mm 1 mps 702 mmHg 91%
    07:00 -21°C° 0 mm 1 mps 702 mmHg 91%
    08:00 -19°C° 0 mm 1 mps 702 mmHg 88%
    09:00 -17°C° 0 mm 1 mps 702 mmHg 84%
    10:00 -16°C° 0 mm 1 mps 702 mmHg 80%
    11:00 -15°C° 0 mm 1 mps 702 mmHg 78%
    12:00 -14°C° 0 mm 1 mps 702 mmHg 75%
    13:00 -15°C° 0 mm 2 mps 701 mmHg 73%
    14:00 -15°C° 0 mm 2 mps 701 mmHg 75%
    15:00 -13°C° 0 mm 1 mps 701 mmHg 77%
    16:00 -13°C° 0 mm 1 mps 701 mmHg 80%
    17:00 -15°C° 0 mm 1 mps 701 mmHg 82%
    18:00 -16°C° 0 mm 1 mps 701 mmHg 85%
    19:00 -18°C° 0 mm 1 mps 701 mmHg 87%
    20:00 -18°C° 0 mm 1 mps 701 mmHg 88%
    21:00 -19°C° 0 mm 1 mps 701 mmHg 89%
    22:00 -19°C° 0 mm 1 mps 701 mmHg 89%
    23:00 -20°C° 0 mm 1 mps 701 mmHg 90%

    Tomorrow, 19 February, Monday

    Time Temperature Precipitation Wind Pressure Humidity
    00:00 -20°C° 0 mm 1 mps 701 mmHg 90%
    01:00 -21°C° 0 mm 1 mps 701 mmHg 90%
    02:00 -21°C° 0 mm 1 mps 701 mmHg 91%
    03:00 -21°C° 0 mm 1 mps 700 mmHg 91%
    04:00 -22°C° 0 mm 1 mps 700 mmHg 91%
    05:00 -22°C° 0 mm 1 mps 700 mmHg 91%
    06:00 -22°C° 0 mm 1 mps 700 mmHg 91%
    07:00 -22°C° 0 mm 1 mps 700 mmHg 92%
    08:00 -20°C° 0 mm 1 mps 701 mmHg 88%
    09:00 -18°C° 0 mm 1 mps 701 mmHg 85%
    10:00 -19°C° 0 mm 2 mps 701 mmHg 82%
    11:00 -17°C° 0 mm 2 mps 701 mmHg 80%
    12:00 -16°C° 0 mm 2 mps 700 mmHg 78%
    13:00 -15°C° 0 mm 2 mps 700 mmHg 76%
    14:00 -15°C° 0 mm 2 mps 700 mmHg 78%
    15:00 -15°C° 0 mm 2 mps 700 mmHg 81%
    16:00 -15°C° 0 mm 2 mps 699 mmHg 83%
    17:00 -17°C° 0 mm 2 mps 699 mmHg 86%
    18:00 -19°C° 0 mm 2 mps 700 mmHg 88%
    19:00 -20°C° 0 mm 2 mps 700 mmHg 91%
    20:00 -19°C° 0 mm 1 mps 700 mmHg 91%
    21:00 -19°C° 0 mm 1 mps 700 mmHg 92%
    22:00 -20°C° 0 mm 1 mps 700 mmHg 92%
    23:00 -20°C° 0 mm 1 mps 700 mmHg 92%

    Day after tomorrow, 20 February, Tuesday

    Time Temperature Precipitation Wind Pressure Humidity
    00:00 -20°C° 0 mm 1 mps 700 mmHg 92%
    01:00 -21°C° 0 mm 1 mps 700 mmHg 92%
    02:00 -21°C° 0 mm 1 mps 700 mmHg 91%
    03:00 -24°C° 0 mm 2 mps 700 mmHg 91%
    04:00 -24°C° 0 mm 2 mps 700 mmHg 91%
    05:00 -24°C° 0 mm 2 mps 700 mmHg 91%
    06:00 -25°C° 0 mm 2 mps 700 mmHg 90%
    07:00 -25°C° 0 mm 2 mps 700 mmHg 90%
    08:00 -23°C° 0 mm 2 mps 700 mmHg 86%
    09:00 -20°C° 0 mm 2 mps 700 mmHg 83%
    10:00 -18°C° 0 mm 2 mps 700 mmHg 80%
    11:00 -17°C° 0 mm 2 mps 700 mmHg 78%
    12:00 -16°C° 0 mm 2 mps 699 mmHg 76%
    13:00 -15°C° 0 mm 3 mps 699 mmHg 74%
    14:00 -14°C° 0 mm 2 mps 699 mmHg 76%
    15:00 -14°C° 0 mm 2 mps 698 mmHg 79%
    16:00 -14°C° 0 mm 2 mps 698 mmHg 81%
    17:00 -16°C° 0 mm 2 mps 698 mmHg 83%
    18:00 -18°C° 0 mm 2 mps 698 mmHg 85%
    19:00 -19°C° 0 mm 2 mps 698 mmHg 86%
    20:00 -20°C° 0 mm 2 mps 698 mmHg 86%
    21:00 -20°C° 0 mm 2 mps 698 mmHg 86%
    22:00 -21°C° 0 mm 2 mps 698 mmHg 86%
    23:00 -21°C° 0 mm 2 mps 697 mmHg 86%

    21 February, Wednesday

    Time Temperature Precipitation Wind Pressure Humidity
    00:00 -21°C° 0 mm 2 mps 697 mmHg 86%
    01:00 -23°C° 0 mm 2 mps 697 mmHg 86%
    02:00 -23°C° 0 mm 2 mps 696 mmHg 86%
    03:00 -23°C° 0 mm 2 mps 696 mmHg 87%
    04:00 -23°C° 0 mm 2 mps 696 mmHg 87%
    05:00 -23°C° 0 mm 2 mps 696 mmHg 86%
    06:00 -23°C° 0 mm 2 mps 696 mmHg 86%
    07:00 -23°C° 0 mm 2 mps 696 mmHg 85%
    08:00 -20°C° 0 mm 2 mps 696 mmHg 82%
    09:00 -19°C° 0 mm 2 mps 696 mmHg 79%
    10:00 -18°C° 0 mm 3 mps 696 mmHg 76%
    11:00 -16°C° 0 mm 3 mps 695 mmHg 75%
    12:00 -15°C° 0 mm 3 mps 695 mmHg 73%
    13:00 -14°C° 0 mm 3 mps 694 mmHg 71%
    14:00 -13°C° 0 mm 2 mps 694 mmHg 74%
    15:00 -13°C° 0 mm 2 mps 694 mmHg 77%
    16:00 -13°C° 0 mm 2 mps 693 mmHg 79%
    17:00 -14°C° 0 mm 2 mps 693 mmHg 81%
    18:00 -16°C° 0 mm 2 mps 693 mmHg 83%
    19:00 -18°C° 0 mm 2 mps 693 mmHg 85%
    20:00 -18°C° 0 mm 2 mps 693 mmHg 86%
    21:00 -18°C° 0 mm 2 mps 693 mmHg 86%
    22:00 -18°C° 0 mm 2 mps 693 mmHg 86%
    23:00 -18°C° 0 mm 2 mps 693 mmHg 87%

    22 February, Thursday

    Time Temperature Precipitation Wind Pressure Humidity
    00:00 -19°C° 0 mm 2 mps 692 mmHg 87%
    01:00 -19°C° 0 mm 2 mps 692 mmHg 87%
    02:00 -20°C° 0 mm 2 mps 692 mmHg 87%
    03:00 -20°C° 0 mm 2 mps 691 mmHg 87%
    04:00 -20°C° 0 mm 2 mps 691 mmHg 87%
    05:00 -21°C° 0 mm 2 mps 691 mmHg 87%
    06:00 -21°C° 0 mm 2 mps 691 mmHg 87%
    07:00 -21°C° 0 mm 2 mps 691 mmHg 87%
    08:00 -19°C° 0 mm 2 mps 691 mmHg 84%
    09:00 -17°C° 0 mm 2 mps 691 mmHg 80%
    10:00 -16°C° 0 mm 2 mps 692 mmHg 77%
    11:00 -14°C° 0 mm 2 mps 691 mmHg 75%
    12:00 -13°C° 0 mm 2 mps 691 mmHg 73%
    13:00 -12°C° 0 mm 2 mps 691 mmHg 71%
    14:00 -12°C° 0 mm 2 mps 690 mmHg 73%
    15:00 -12°C° 0 mm 2 mps 690 mmHg 76%
    16:00 -10°C° 0 mm 1 mps 690 mmHg 79%
    17:00 -12°C° 0 mm 1 mps 690 mmHg 81%
    18:00 -14°C° 0 mm 1 mps 690 mmHg 83%
    19:00 -15°C° 0 mm 1 mps 690 mmHg 85%
    20:00 -16°C° 0 mm 1 mps 690 mmHg 84%
    21:00 -16°C° 0 mm 1 mps 690 mmHg 84%
    22:00 -17°C° 0 mm 1 mps 691 mmHg 84%
    23:00 -17°C° 0 mm 1 mps 690 mmHg 84%

    23 February, Friday

    Time Temperature Precipitation Wind Pressure Humidity
    00:00 -17°C° 0 mm 1 mps 690 mmHg 84%
    01:00 -17°C° 0 mm 1 mps 690 mmHg 85%
    02:00 -18°C° 0 mm 1 mps 690 mmHg 85%
    03:00 -18°C° 0 mm 1 mps 690 mmHg 85%
    04:00 -18°C° 0 mm 1 mps 690 mmHg 85%
    05:00 -18°C° 0 mm 1 mps 690 mmHg 85%
    06:00 -18°C° 0 mm 1 mps 690 mmHg 85%
    07:00 -18°C° 0 mm 1 mps 691 mmHg 85%
    08:00 -16°C° 0 mm 1 mps 691 mmHg 81%
    09:00 -14°C° 0 mm 1 mps 691 mmHg 78%
    10:00 -12°C° 0 mm 1 mps 691 mmHg 74%
    11:00 -11°C° 0 mm 1 mps 691 mmHg 73%
    12:00 -10°C° 0 mm 1 mps 691 mmHg 72%
    13:00 -8°C° 0 mm 1 mps 691 mmHg 70%
    14:00 -8°C° 0 mm 1 mps 691 mmHg 73%
    15:00 -8°C° 0 mm 1 mps 691 mmHg 76%
    16:00 -8°C° 0 mm 1 mps 692 mmHg 79%
    17:00 -10°C° 0 mm 1 mps 692 mmHg 81%
    18:00 -11°C° 0 mm 0 mps 692 mmHg 83%
    19:00 -13°C° 0 mm 0 mps 692 mmHg 85%
    20:00 -13°C° 0 mm 0 mps 693 mmHg 85%
    21:00 -14°C° 0 mm 0 mps 693 mmHg 85%
    22:00 -14°C° 0 mm 0 mps 693 mmHg 85%
    23:00 -14°C° 0 mm 0 mps 693 mmHg 86%
    Show more